Location: Azul
(36.7830°S, 59.8500°W)
Time: 18:28:04
(UTC-03:00)

BUGSAT 1 - Pass Details

Date: 24 October 2021
Orbit: 558 x 600 km, 98.1° (Epoch: 06 December)

Event Time Altitude Azimuth Distance (km) Brightness Sun altitude
Rises 04:08:59 0° 48° (NE) 2,804 ? -21.5°
Reaches altitude 10° 04:11:32 10° 64° (ENE) 1,922 ? -21.1°
Maximum altitude 04:14:39 21° 112° (ESE) 1,377 ? -20.6°
Drops below altitude 10° 04:17:48 10° 160° (SSE) 1,959 ? -20.0°
Sets 04:20:25 0° 176° (S) 2,877 ? -19.6°
